Terminal Aerodrome Forecast
Issued by NWS Mt. Holly, NJ

Home | Current Version | Previous Version | Text Only | Print | Product List | Glossary On
Versions: 1 2 3 4 5 6 7 8 9 10 11 12 13 14 15 16 17 18 19 20 21 22 23 24 25 26 27 28 29 30 31 32
000
FTUS41 KPHI 300901 AAA
TAFPHL
TAF AMD
KPHL 300901Z 3009/3112 06007KT P6SM SCT180 BKN250
     FM301600 10005KT P6SM BKN180
     FM301800 16006KT P6SM SCT090 BKN150 PROB30 3104/3107 5SM -RA
      BKN035
     FM310700 12007KT 6SM -RA SCT030 OVC045
     FM311000 11009KT 5SM -RA SCT008 OVC018=

USA.gov is the U.S. government's official web portal to all federal, state and local government web resources and services.